When you browse on this site, cookies collect data to enhance your experience and personalize the content and advertising you see.
Visit our Privacy Policy to learn more. By continuing to use the site, you agree to this use of cookies and data.
  • In Österreich
  • Länderverzeichnis
  • Für 7 Tage
  • Wassertemperatur
  • Wetterkarte
  • News
  • Widgets
  • user-avatar
    Anmelden

    Stündliche Wetter Can Tho

    Heute, 19 Januar, Sonntag

    Zeit Temperatur Niederschläge Wind Luftdruck Luftfeuchtigkeit
    00:00 +25°C° 0 mm 3 m/S 759 mmHg 82%
    01:00 +25°C° 0 mm 3 m/S 759 mmHg 82%
    02:00 +25°C° 0 mm 3 m/S 758 mmHg 82%
    03:00 +25°C° 0 mm 3 m/S 758 mmHg 82%
    04:00 +25°C° 0 mm 3 m/S 758 mmHg 82%
    05:00 +25°C° 0 mm 3 m/S 758 mmHg 82%
    06:00 +25°C° 0 mm 3 m/S 759 mmHg 82%
    07:00 +25°C° 0 mm 3 m/S 759 mmHg 83%
    08:00 +27°C° 0 mm 3 m/S 759 mmHg 75%
    09:00 +29°C° 0 mm 4 m/S 760 mmHg 66%
    10:00 +32°C° 0 mm 5 m/S 760 mmHg 58%
    11:00 +33°C° 0 mm 5 m/S 759 mmHg 54%
    12:00 +34°C° 0 mm 5 m/S 759 mmHg 51%
    13:00 +35°C° 0 mm 5 m/S 759 mmHg 47%
    14:00 +35°C° 0 mm 4 m/S 758 mmHg 48%
    15:00 +34°C° 0 mm 4 m/S 758 mmHg 49%
    16:00 +34°C° 0 mm 4 m/S 757 mmHg 50%
    17:00 +32°C° 0 mm 4 m/S 758 mmHg 57%
    18:00 +29°C° 0 mm 4 m/S 758 mmHg 63%
    19:00 +27°C° 0 mm 4 m/S 758 mmHg 69%
    20:00 +27°C° 0 mm 4 m/S 758 mmHg 72%
    21:00 +26°C° 0 mm 4 m/S 759 mmHg 74%
    22:00 +26°C° 0 mm 4 m/S 759 mmHg 76%
    23:00 +26°C° 0 mm 4 m/S 759 mmHg 75%

    Morgen, 20 Januar, Montag

    Zeit Temperatur Niederschläge Wind Luftdruck Luftfeuchtigkeit
    00:00 +26°C° 0 mm 4 m/S 759 mmHg 75%
    01:00 +25°C° 0 mm 3 m/S 759 mmHg 74%
    02:00 +25°C° 0 mm 3 m/S 759 mmHg 74%
    03:00 +25°C° 0 mm 3 m/S 758 mmHg 73%
    04:00 +25°C° 0 mm 3 m/S 758 mmHg 73%
    05:00 +25°C° 0 mm 3 m/S 758 mmHg 75%
    06:00 +25°C° 0 mm 3 m/S 759 mmHg 76%
    07:00 +25°C° 0 mm 3 m/S 759 mmHg 78%
    08:00 +27°C° 0 mm 4 m/S 760 mmHg 70%
    09:00 +29°C° 0 mm 5 m/S 760 mmHg 62%
    10:00 +32°C° 0 mm 5 m/S 760 mmHg 54%
    11:00 +34°C° 0 mm 5 m/S 759 mmHg 50%
    12:00 +35°C° 0 mm 5 m/S 759 mmHg 45%
    13:00 +36°C° 0 mm 5 m/S 758 mmHg 41%
    14:00 +35°C° 0 mm 5 m/S 758 mmHg 43%
    15:00 +35°C° 0 mm 5 m/S 757 mmHg 44%
    16:00 +34°C° 0 mm 6 m/S 757 mmHg 46%
    17:00 +32°C° 0 mm 5 m/S 757 mmHg 54%
    18:00 +29°C° 0 mm 4 m/S 758 mmHg 61%
    19:00 +27°C° 0 mm 4 m/S 758 mmHg 69%
    20:00 +27°C° 0 mm 4 m/S 759 mmHg 72%
    21:00 +26°C° 0 mm 3 m/S 760 mmHg 76%
    22:00 +26°C° 0 mm 3 m/S 760 mmHg 79%
    23:00 +26°C° 0 mm 3 m/S 760 mmHg 80%

    übermorgen, 21 Januar, Dienstag

    Zeit Temperatur Niederschläge Wind Luftdruck Luftfeuchtigkeit
    00:00 +26°C° 0 mm 3 m/S 760 mmHg 81%
    01:00 +26°C° 0 mm 3 m/S 760 mmHg 82%
    02:00 +25°C° 0 mm 3 m/S 760 mmHg 82%
    03:00 +25°C° 0 mm 3 m/S 759 mmHg 82%
    04:00 +25°C° 0 mm 3 m/S 759 mmHg 83%
    05:00 +25°C° 0 mm 3 m/S 759 mmHg 82%
    06:00 +25°C° 0 mm 3 m/S 759 mmHg 82%
    07:00 +25°C° 0 mm 3 m/S 760 mmHg 81%
    08:00 +27°C° 0 mm 3 m/S 760 mmHg 72%
    09:00 +30°C° 0 mm 4 m/S 761 mmHg 63%
    10:00 +33°C° 0 mm 4 m/S 761 mmHg 53%
    11:00 +34°C° 0 mm 4 m/S 760 mmHg 49%
    12:00 +36°C° 0 mm 4 m/S 759 mmHg 45%
    13:00 +37°C° 0 mm 4 m/S 759 mmHg 40%
    14:00 +36°C° 0 mm 4 m/S 758 mmHg 44%
    15:00 +36°C° 0 mm 4 m/S 758 mmHg 47%
    16:00 +35°C° 0 mm 5 m/S 757 mmHg 50%
    17:00 +33°C° 0 mm 4 m/S 758 mmHg 56%
    18:00 +30°C° 0 mm 4 m/S 758 mmHg 63%
    19:00 +28°C° 0 mm 4 m/S 759 mmHg 70%
    20:00 +28°C° 0 mm 4 m/S 759 mmHg 73%
    21:00 +27°C° 0 mm 4 m/S 760 mmHg 77%
    22:00 +27°C° 0 mm 4 m/S 760 mmHg 80%
    23:00 +27°C° 0 mm 4 m/S 760 mmHg 81%

    22 Januar, Mittwoch

    Zeit Temperatur Niederschläge Wind Luftdruck Luftfeuchtigkeit
    00:00 +26°C° 0 mm 3 m/S 760 mmHg 81%
    01:00 +26°C° 0 mm 3 m/S 760 mmHg 82%
    02:00 +26°C° 0 mm 3 m/S 759 mmHg 82%
    03:00 +26°C° 0 mm 3 m/S 759 mmHg 82%
    04:00 +26°C° 0 mm 3 m/S 758 mmHg 82%
    05:00 +26°C° 0 mm 3 m/S 758 mmHg 81%
    06:00 +26°C° 0 mm 3 m/S 759 mmHg 80%
    07:00 +26°C° 0 mm 3 m/S 759 mmHg 80%
    08:00 +29°C° 0 mm 4 m/S 759 mmHg 71%
    09:00 +32°C° 0 mm 4 m/S 760 mmHg 63%
    10:00 +34°C° 0 mm 5 m/S 760 mmHg 55%
    11:00 +35°C° 0 mm 5 m/S 759 mmHg 51%
    12:00 +36°C° 0 mm 5 m/S 759 mmHg 47%
    13:00 +37°C° 0 mm 5 m/S 758 mmHg 43%
    14:00 +36°C° 0 mm 5 m/S 757 mmHg 45%
    15:00 +36°C° 0 mm 5 m/S 757 mmHg 48%
    16:00 +35°C° 0 mm 5 m/S 756 mmHg 50%
    17:00 +33°C° 0 mm 4 m/S 757 mmHg 58%
    18:00 +30°C° 0 mm 4 m/S 757 mmHg 66%
    19:00 +28°C° 0 mm 4 m/S 758 mmHg 74%
    20:00 +27°C° 0 mm 4 m/S 758 mmHg 78%
    21:00 +27°C° 0 mm 4 m/S 759 mmHg 81%
    22:00 +26°C° 0 mm 3 m/S 759 mmHg 84%
    23:00 +26°C° 0 mm 3 m/S 759 mmHg 85%

    23 Januar, Donnerstag

    Zeit Temperatur Niederschläge Wind Luftdruck Luftfeuchtigkeit
    00:00 +26°C° 0 mm 4 m/S 759 mmHg 85%
    01:00 +26°C° 0 mm 4 m/S 758 mmHg 85%
    02:00 +25°C° 0 mm 3 m/S 758 mmHg 85%
    03:00 +25°C° 0 mm 3 m/S 758 mmHg 85%
    04:00 +25°C° 0 mm 3 m/S 757 mmHg 85%
    05:00 +25°C° 0 mm 3 m/S 758 mmHg 85%
    06:00 +25°C° 0 mm 3 m/S 758 mmHg 85%
    07:00 +25°C° 0 mm 2 m/S 759 mmHg 86%
    08:00 +27°C° 0 mm 3 m/S 759 mmHg 75%
    09:00 +30°C° 0 mm 4 m/S 759 mmHg 65%
    10:00 +33°C° 0 mm 5 m/S 760 mmHg 54%
    11:00 +34°C° 0 mm 5 m/S 759 mmHg 51%
    12:00 +35°C° 0 mm 5 m/S 758 mmHg 47%
    13:00 +36°C° 0 mm 5 m/S 758 mmHg 43%
    14:00 +35°C° 0 mm 5 m/S 757 mmHg 44%
    15:00 +35°C° 0 mm 4 m/S 756 mmHg 44%
    16:00 +34°C° 0 mm 4 m/S 756 mmHg 45%
    17:00 +32°C° 0 mm 4 m/S 756 mmHg 50%
    18:00 +29°C° 0 mm 3 m/S 756 mmHg 55%
    19:00 +27°C° 0 mm 3 m/S 757 mmHg 61%
    20:00 +26°C° 0 mm 3 m/S 757 mmHg 67%
    21:00 +25°C° 0 mm 3 m/S 758 mmHg 73%
    22:00 +24°C° 0 mm 2 m/S 758 mmHg 80%
    23:00 +24°C° 0 mm 2 m/S 758 mmHg 84%

    24 Januar, Freitag

    Zeit Temperatur Niederschläge Wind Luftdruck Luftfeuchtigkeit
    00:00 +24°C° 0 mm 2 m/S 758 mmHg 88%
    01:00 +23°C° 0 mm 1 m/S 758 mmHg 93%
    02:00 +23°C° 0 mm 1 m/S 758 mmHg 93%
    03:00 +23°C° 0 mm 2 m/S 758 mmHg 94%
    04:00 +23°C° 0 mm 2 m/S 757 mmHg 95%
    05:00 +24°C° 0 mm 2 m/S 758 mmHg 94%
    06:00 +24°C° 0 mm 1 m/S 758 mmHg 93%
    07:00 +24°C° 0 mm 1 m/S 758 mmHg 92%
    08:00 +27°C° 0 mm 2 m/S 759 mmHg 81%
    09:00 +29°C° 0 mm 3 m/S 759 mmHg 70%
    10:00 +32°C° 0 mm 4 m/S 759 mmHg 59%
    11:00 +34°C° 0 mm 4 m/S 759 mmHg 53%
    12:00 +35°C° 0 mm 4 m/S 758 mmHg 47%
    13:00 +36°C° 0 mm 4 m/S 757 mmHg 41%
    14:00 +36°C° 0 mm 4 m/S 756 mmHg 42%
    15:00 +35°C° 0 mm 4 m/S 756 mmHg 42%
    16:00 +35°C° 0 mm 4 m/S 755 mmHg 42%
    17:00 +33°C° 0 mm 4 m/S 756 mmHg 51%
    18:00 +29°C° 0 mm 4 m/S 756 mmHg 59%
    19:00 +27°C° 0 mm 4 m/S 757 mmHg 68%
    20:00 +26°C° 0 mm 3 m/S 757 mmHg 76%
    21:00 +25°C° 0 mm 3 m/S 758 mmHg 85%
    22:00 +24°C° 0 mm 2 m/S 758 mmHg 94%
    23:00 +24°C° 0 mm 2 m/S 758 mmHg 95%
    Mehr zeigen